Flag for Morocco Weather past 2 weeks in Marrakech, Morocco

Now
61 °F

Passing clouds.


Feels Like: 61 °F
Forecast: 58 / 88 °F
Wind: 8 mph from East

Location: Marrakech Airport


UV Index: 7 (High)

Visibility: N/A


Pressure: 30.18 "Hg

Humidity: 77%

Dew point: 54 °F

Location of MarrakechLocation

Historic Weather in Marrakech

°F

Marrakech temperature yesterday

Maximum temperature yesterday: 81 °F (at 6:00 PM)
Minimum temperature yesterday: 55 °F (at 6:00 AM)
Average temperature yesterday: 67 °F

Past Weeks' High & Low Weather Summary

 TemperatureHumidityPressure
High95 °F (Apr 10, 3:30 PM)100% (Apr 16, 8:00 AM)30.24 "Hg (Apr 16, 8:00 AM)
Low52 °F (Apr 21, 9:30 PM)11% (Apr 10, 5:00 PM)29.77 "Hg (Apr 13, 6:00 PM)
Average70 °F59%30.00 "Hg
* Reported Apr 10 9:30 AM — Apr 25 8:30 AM, Marrakech, Weather by CustomWeather, © 2014

Note: Actual official high and low records may vary slightly from our data, if they occured in-between our weather recording intervals... More about our weather records

Advertising

Historic Weather Conditions — Data for Previous 24 hours

 ConditionsComfort  
Time TempWeatherWind HumidityBarometerVisibility
8:30 AM
Apr 25
59 °FSunny.8 mph77%30.18 "Hg10 mi
8:00 AM57 °FSunny.6 mph82%30.21 "Hg10 mi
7:30 AM57 °FSunny.7 mph82%30.18 "Hg10 mi
7:00 AM55 °FSunny.7 mph82%30.18 "Hg10 mi
6:30 AM57 °FSunny.8 mph82%30.18 "Hg10 mi
6:00 AM57 °FSunny.7 mph82%30.18 "Hg10 mi
5:30 AM57 °FClear.6 mph82%30.18 "Hg10 mi
5:00 AM57 °FClear.6 mph88%30.18 "Hg10 mi
4:30 AM59 °FCool.6 mph77%30.18 "HgN/A
4:00 AM59 °FCool.8 mph77%30.18 "HgN/A
3:30 AM61 °FCool.8 mph72%30.21 "HgN/A
3:00 AM59 °FCool.9 mph77%30.21 "HgN/A
2:30 AM59 °FClear.10 mph77%30.21 "Hg10 mi
2:00 AM61 °FClear.9 mph77%30.21 "Hg10 mi
1:30 AM61 °FPassing clouds.12 mph77%30.21 "HgN/A
1:00 AM61 °FClear.9 mph77%30.21 "Hg10 mi
12:30 AM63 °FClear.10 mph73%30.24 "Hg10 mi
12:00 AM63 °FPassing clouds.12 mph73%30.24 "HgN/A
11:30 PM
Apr 24
64 °FPassing clouds.8 mph73%30.24 "HgN/A
11:00 PM64 °FPassing clouds.9 mph68%30.21 "HgN/A
10:30 PM66 °FPassing clouds.8 mph68%30.21 "HgN/A
10:00 PM66 °FPassing clouds.15 mph64%30.21 "HgN/A
9:30 PM68 °FPassing clouds.14 mph64%30.18 "HgN/A
9:00 PM70 °FPassing clouds.14 mph57%30.18 "HgN/A
8:30 PM73 °FPassing clouds.10 mph47%30.15 "HgN/A
8:00 PM75 °FPassing clouds.10 mph44%30.15 "HgN/A
7:30 PM77 °FPassing clouds.10 mph39%30.12 "HgN/A
7:00 PM81 °FScattered clouds.7 mph30%30.12 "HgN/A
6:30 PM81 °FPassing clouds.6 mph30%30.12 "HgN/A
6:00 PM81 °FPassing clouds.6 mph34%30.12 "HgN/A
5:00 PM79 °FPassing clouds.6 mph39%30.12 "HgN/A
4:30 PM79 °FPassing clouds.5 mph39%30.12 "HgN/A
4:00 PM79 °FPassing clouds.5 mph42%30.15 "HgN/A
3:30 PM79 °FPassing clouds.6 mph39%30.15 "HgN/A
2:30 PM75 °FPassing clouds.3 mph47%30.18 "HgN/A
2:00 PM75 °FPassing clouds.5 mph47%30.18 "HgN/A
1:30 PM73 °FPassing clouds.3 mph53%30.18 "HgN/A
1:00 PM72 °FPassing clouds.6 mph53%30.18 "HgN/A
12:30 PM72 °FSunny.2 mph57%30.21 "Hg10 mi
12:00 PM70 °FPassing clouds.6 mph60%30.21 "HgN/A
11:30 AM68 °FPassing clouds.6 mph64%30.21 "HgN/A
11:00 AM66 °FPassing clouds.5 mph68%30.21 "HgN/A
10:30 AM64 °FPassing clouds.5 mph68%30.21 "HgN/A
10:00 AM63 °FPassing clouds.5 mph77%30.18 "HgN/A
9:30 AM61 °FPassing clouds.5 mph83%30.18 "HgN/A
9:00 AM59 °FCool.6 mph82%30.18 "HgN/A
Weather by CustomWeather, © 2014

See weather overview